Weather History for Millinocket, ME

Change the Weather History Date:

Friday, May 17, 2013

  Actual Average Record
Temperature  
Mean Temperature 51 °F 54 °F  
Max Temperature 60 °F 65 °F 91 °F (1932)
Min Temperature 42 °F 42 °F 27 °F (1936)
Degree Days  
Heating Degree Days 14 11  
Month to date heating degree days 165 237  
Since 1 July heating degree days 7448 8158  
Cooling Degree Days 0 0  
Month to date cooling degree days 0 0  
Year to date cooling degree days 0 0  
Growing Degree Days 1 (Base 50)    
Moisture  
Dew Point 37 °F    
Average Humidity 57    
Maximum Humidity 77    
Minimum Humidity 36    
Precipitation  
Precipitation T in 0.10 in 1.91 in (1948)
Month to date precipitation 1.05 1.74  
Year to date precipitation 7.43 13.47  
Snow  
Snow 0.00 in - - ()
Month to date snowfall 0.0  
Since 1 July snowfall 0.0  
Snow Depth 0.00 in    
Sea Level Pressure  
Sea Level Pressure 29.98 in    
Wind  
Wind Speed 7 mph (North)    
Max Wind Speed 20 mph    
Max Gust Speed 24 mph    
Visibility 10 miles    
Events      
T = Trace of Precipitation, MM = Missing Value Source: NWS Daily Summary

Daily Weather History Graph

Daily Weather History Graph

Search for Another Location

Airport:

Trip Planner

Search our weather history database for the weather conditions in past years. The results will help you decide how hot, cold, wet, or windy it might be!

Date:

Astronomy

May. 17, 2013 Rise Set
Actual Time 5:01 AM EDT 8:01 PM EDT
Civil Twilight 4:26 AM EDT 8:36 PM EDT
Nautical Twilight 3:41 AM EDT 9:22 PM EDT
Astronomical Twilight 2:47 AM EDT 10:16 PM EDT
Moon 11:39 AM EDT (5/17) 12:44 AM EDT (5/17)
Length of Visible Light 16h 10m
Length of Day
15h 00m
Waxing Crescent, 45% of the Moon is Illuminated
May 17
Waxing Crescent
May 18
First Quarter
May 25
Full
May 31
Last Quarter
Jun 8
New

Hourly Weather History & Observations

Time (EDT) Temp. Windchill Dew Point Humidity Pressure Visibility Wind Dir Wind Speed Gust Speed Precip Events Conditions
12:53 AM 52.0 °F - 44.1 °F 74% 29.78 in 10.0 mi NW 9.2 mph 17.3 mph N/A   Overcast
1:21 AM 51.8 °F - 44.6 °F 76% 29.77 in 10.0 mi NNW 8.1 mph - N/A   Overcast
1:53 AM 51.1 °F - 45.0 °F 80% 29.78 in 10.0 mi NNW 4.6 mph - N/A   Overcast
2:26 AM 50.0 °F - 44.6 °F 82% 29.78 in 10.0 mi North 5.8 mph - N/A   Overcast
2:53 AM 48.9 °F - 41.0 °F 74% 29.81 in 10.0 mi NNE 8.1 mph - N/A   Overcast
3:53 AM 46.9 °F - 39.0 °F 74% 29.83 in 10.0 mi North 6.9 mph - N/A   Overcast
4:53 AM 46.0 °F - 37.0 °F 71% 29.86 in 10.0 mi Calm Calm - N/A   Overcast
5:53 AM 45.0 °F 41.8 °F 36.0 °F 71% 29.90 in 10.0 mi North 5.8 mph - N/A   Overcast
6:00 AM 46.4 °F 43.5 °F 35.6 °F 66% 29.89 in 10.0 mi North 5.8 mph - N/A   Overcast
6:12 AM 46.4 °F 43.5 °F 35.6 °F 66% 29.89 in 10.0 mi North 5.8 mph - N/A   Mostly Cloudy
6:21 AM 46.4 °F 41.5 °F 35.6 °F 66% 29.90 in 10.0 mi NNW 10.4 mph 19.6 mph N/A   Overcast
6:53 AM 46.0 °F 41.0 °F 35.1 °F 66% 29.93 in 10.0 mi NNW 10.4 mph 20.7 mph N/A   Overcast
8:20 AM 46.4 °F 41.5 °F 35.6 °F 66% 29.95 in 10.0 mi NNW 10.4 mph - N/A   Overcast
8:53 AM 46.9 °F - 35.1 °F 63% 29.98 in 10.0 mi NNW 8.1 mph - N/A   Overcast
9:53 AM 48.9 °F - 35.1 °F 59% 30.00 in 10.0 mi North 9.2 mph 19.6 mph N/A   Overcast
10:53 AM 50.0 °F - 36.0 °F 59% 30.02 in 10.0 mi North 9.2 mph 19.6 mph N/A   Overcast
11:53 AM 52.0 °F - 35.1 °F 53% 30.03 in 10.0 mi NNW 11.5 mph - N/A   Overcast
12:53 PM 55.0 °F - 34.0 °F 45% 30.03 in 10.0 mi NNW 17.3 mph 24.2 mph N/A   Mostly Cloudy
1:53 PM 57.0 °F - 36.0 °F 45% 30.04 in 10.0 mi NNE 10.4 mph 20.7 mph 0.00 in   Overcast
3:53 PM 57.0 °F - 34.0 °F 42% 30.06 in 10.0 mi NNW 11.5 mph 20.7 mph N/A   Overcast
4:53 PM 57.0 °F - 33.1 °F 40% 30.08 in 10.0 mi North 16.1 mph 21.9 mph N/A   Overcast
5:53 PM 57.9 °F - 30.0 °F 35% 30.10 in 10.0 mi North 11.5 mph 21.9 mph N/A   Mostly Cloudy
6:53 PM 55.9 °F - 35.1 °F 45% 30.12 in 10.0 mi NNE 4.6 mph - N/A   Overcast
7:53 PM 54.0 °F - 37.0 °F 53% 30.15 in 10.0 mi Calm Calm - N/A   Overcast
8:53 PM 51.1 °F - 37.9 °F 61% 30.19 in 10.0 mi Calm Calm - N/A   Mostly Cloudy
9:53 PM 48.9 °F - 37.0 °F 64% 30.20 in 10.0 mi Calm Calm - N/A   Mostly Cloudy
10:53 PM 46.0 °F 44.8 °F 37.9 °F 73% 30.21 in 10.0 mi NW 3.5 mph - N/A   Overcast
11:53 PM 46.9 °F - 35.1 °F 63% 30.22 in 10.0 mi North 3.5 mph - N/A   Mostly Cloudy